USA 193 DEB 1 32510U 06057L 08132.79800860 .00959281 97878-5 14850-2 0 1711 2 32510 58.5427 53.4973 0125651 148.6738 212.3354 15.90316034 12412 USA 193 DEB 1 32512U 06057N 08132.80583034 .00397721 51045-4 11382-2 0 1331 2 32512 58.5440 64.1899 0257171 144.4293 217.3896 15.55777924 12234 USA 193 DEB 1 32524U 06057AA 08132.32136518 .00966447 25849-3 28939-2 0 1810 2 32524 58.7958 80.7900 0291517 135.5988 226.8893 15.47914348 11969 USA 193 DEB 1 32532U 06057AJ 08132.31155972 .02285517 82378-5 49317-2 0 1834 2 32532 58.4065 133.2949 0510980 96.7474 269.3067 15.04028865 10830 USA 193 DEB 1 32542U 06057AU 08123.94134340 .03884653 10061-4 18674-2 0 1535 2 32542 58.8786 94.3712 0111787 101.8751 259.5310 16.07485835 10939 USA 193 DEB 1 32543U 06057AV 08132.79036544 .00498792 69869-4 16490-2 0 1497 2 32543 58.6526 67.1924 0300731 141.5493 220.7658 15.44516294 12184 USA 193 DEB 1 32578U 06057AZ 08116.35740531 .06994102 11202-4 13578-3 0 1065 2 32578 58.3906 91.9253 0004515 162.4380 215.1383 16.47070380 9992 USA 193 DEB 1 32593U 06057BQ 08127.20550511 .17351398 10304-4 40600-2 0 1417 2 32593 58.4471 83.9045 0039922 124.4526 238.5933 16.26663152 10711 USA 193 DEB 1 32601U 06057BY 08132.18838762 .00299675 28082-4 12776-2 0 1288 2 32601 58.5192 72.8129 0354516 139.1892 223.6344 15.29292602 11082 USA 193 DEB 1 32602U 06057BZ 08132.78641485 .00573800 11121-3 14324-2 0 1471 2 32602 57.1949 48.0103 0196715 174.4184 185.9338 15.69969656 11319 USA 193 DEB 1 32604U 06057CB 08132.15676291 .00444393 65540-4 12109-2 0 1396 2 32604 58.4858 62.2612 0222844 143.6291 218.0223 15.63501486 11494 USA 193 DEB 1 32608U 06057CF 08124.21741789 .04459223 11033-4 21812-3 0 1070 2 32608 58.5190 60.3930 0008808 116.6123 244.3567 16.42270105 11230 USA 193 DEB 1 32626U 06057CZ 08121.85232634 .08636120 11240-4 65868-4 0 954 2 32626 58.3697 66.4021 0010190 214.8209 152.1118 16.52096119 9834 USA 193 DEB 1 32646U 06057DV 08132.79116065 .00394450 48481-4 10936-2 0 1164 2 32646 57.4457 50.0979 0290381 147.5620 214.3606 15.49278353 11116 USA 193 DEB 1 32650U 06057DZ 08132.24088887 .00174160 10293-4 18498-3 0 939 2 32650 58.2117 25.8604 0065399 127.1142 233.6017 16.05321583 11252 USA 193 DEB 1 32651U 06057EA 08128.09320059 .03758093 10528-4 88498-3 0 1225 2 32651 58.6583 57.3604 0038957 134.1489 231.4717 16.26724626 11213 USA 193 DEB 1 32657U 06057EG 08132.36837140 .00086387 10560-4 39093-3 0 982 2 32657 57.6833 56.2871 0342978 151.2672 210.7852 15.31150737 11485 USA 193 DEB 1 32660U 06057EK 08114.24861185 .10017497 10416-4 31567-2 0 1030 2 32660 57.6616 120.6870 0060776 125.6317 236.6324 16.20725828 8820 USA 193 DEB 1 32675U 06057FA 08128.41217513 .03741151 11035-4 19648-3 0 970 2 32675 58.4979 42.0080 0011981 99.2178 263.8489 16.41524506 10697 USA 193 DEB 1 32679U 06057FE 08108.15179849 .06393662 10545-4 24258-2 0 826 2 32679 57.9466 156.7719 0079846 106.3561 255.8405 16.15723370 7807 USA 193 DEB 1 32685U 06057FL 08132.88590200 .00437388 10234-4 55438-3 0 1096 2 32685 57.6391 31.7352 0108205 185.3585 174.8424 15.96197764 11893